TimeEDT,TemperatureF,Dew PointF,Humidity,Sea Level PressureIn,VisibilityMPH,Wind Direction,Wind SpeedMPH,Gust SpeedMPH,PrecipitationIn,Events,Conditions,WindDirDegrees,DateUTC
12:03 AM,44.6,42.8,93,30.01,10.0,Calm,Calm,-,N/A,,Clear,0,2013-10-22 04:03:00
12:24 AM,44.6,42.8,93,30.00,10.0,Calm,Calm,-,N/A,,Clear,0,2013-10-22 04:24:00
12:42 AM,44.6,42.8,93,29.99,10.0,Calm,Calm,-,N/A,,Clear,0,2013-10-22 04:42:00
1:03 AM,44.6,42.8,93,29.98,10.0,Calm,Calm,-,N/A,,Clear,0,2013-10-22 05:03:00
1:24 AM,44.6,42.8,93,29.98,10.0,Calm,Calm,-,N/A,,Clear,0,2013-10-22 05:24:00
1:42 AM,42.8,42.8,100,29.97,10.0,Calm,Calm,-,N/A,,Clear,0,2013-10-22 05:42:00
2:03 AM,42.8,42.8,100,29.97,10.0,Calm,Calm,-,N/A,,Clear,0,2013-10-22 06:03:00
2:24 AM,42.8,41.0,93,29.96,10.0,Calm,Calm,-,N/A,,Clear,0,2013-10-22 06:24:00
2:42 AM,42.8,41.0,93,29.96,7.0,Calm,Calm,-,N/A,,Clear,0,2013-10-22 06:42:00
3:03 AM,42.8,41.0,93,29.95,7.0,Calm,Calm,-,N/A,,Clear,0,2013-10-22 07:03:00
3:24 AM,42.8,41.0,93,29.94,10.0,Calm,Calm,-,N/A,,Clear,0,2013-10-22 07:24:00
3:42 AM,41.0,41.0,100,29.94,7.0,Calm,Calm,-,N/A,,Clear,0,2013-10-22 07:42:00
4:03 AM,41.0,39.2,93,29.93,10.0,Calm,Calm,-,N/A,,Clear,0,2013-10-22 08:03:00
4:24 AM,41.0,39.2,93,29.92,10.0,Calm,Calm,-,N/A,,Clear,0,2013-10-22 08:24:00
4:42 AM,41.0,39.2,93,29.93,7.0,Calm,Calm,-,N/A,,Clear,0,2013-10-22 08:42:00
5:03 AM,41.0,37.4,87,29.92,7.0,Calm,Calm,-,N/A,,Clear,0,2013-10-22 09:03:00
5:24 AM,41.0,37.4,87,29.91,10.0,Calm,Calm,-,N/A,,Clear,0,2013-10-22 09:24:00
5:45 AM,41.0,39.2,93,29.90,7.0,Calm,Calm,-,N/A,,Clear,0,2013-10-22 09:45:00
6:03 AM,41.0,37.4,87,29.90,7.0,Calm,Calm,-,N/A,,Clear,0,2013-10-22 10:03:00
6:24 AM,39.2,37.4,93,29.90,7.0,Calm,Calm,-,N/A,,Clear,0,2013-10-22 10:24:00
6:45 AM,39.2,37.4,93,29.89,7.0,Calm,Calm,-,N/A,,Clear,0,2013-10-22 10:45:00
7:03 AM,39.2,37.4,93,29.90,7.0,Calm,Calm,-,N/A,,Clear,0,2013-10-22 11:03:00
7:24 AM,39.2,37.4,93,29.89,7.0,Calm,Calm,-,N/A,,Clear,0,2013-10-22 11:24:00
7:45 AM,39.2,37.4,93,29.88,7.0,Calm,Calm,-,N/A,,Clear,0,2013-10-22 11:45:00
8:00 AM,39.2,37.4,93,29.89,5.0,Calm,Calm,-,N/A,,Clear,0,2013-10-22 12:00:00
8:24 AM,41.0,39.2,93,29.88,7.0,Calm,Calm,-,N/A,,Scattered Clouds,0,2013-10-22 12:24:00
8:45 AM,42.8,41.0,93,29.88,7.0,Calm,Calm,-,N/A,,Clear,0,2013-10-22 12:45:00
9:03 AM,44.6,42.8,93,29.88,10.0,Calm,Calm,-,N/A,,Clear,0,2013-10-22 13:03:00
9:24 AM,48.2,46.4,93,29.89,10.0,Calm,Calm,-,N/A,,Clear,0,2013-10-22 13:24:00
9:45 AM,51.8,48.2,88,29.90,10.0,WSW,5.8,-,N/A,,Clear,240,2013-10-22 13:45:00
10:03 AM,55.4,48.2,77,29.90,10.0,WSW,4.6,-,N/A,,Clear,250,2013-10-22 14:03:00
10:24 AM,59.0,48.2,67,29.89,10.0,WSW,4.6,-,N/A,,Clear,250,2013-10-22 14:24:00
10:45 AM,59.0,48.2,67,29.89,10.0,West,4.6,-,N/A,,Clear,260,2013-10-22 14:45:00
11:03 AM,59.0,48.2,67,29.90,10.0,West,5.8,-,N/A,,Clear,260,2013-10-22 15:03:00
11:24 AM,57.2,50.0,77,29.88,10.0,Calm,Calm,-,N/A,,Scattered Clouds,0,2013-10-22 15:24:00
11:45 AM,59.0,48.2,67,29.89,10.0,Calm,Calm,-,N/A,,Mostly Cloudy,0,2013-10-22 15:45:00
12:03 PM,57.2,50.0,77,29.90,10.0,WNW,3.5,-,N/A,,Overcast,300,2013-10-22 16:03:00
12:24 PM,59.0,50.0,72,29.89,10.0,WNW,4.6,-,N/A,,Mostly Cloudy,290,2013-10-22 16:24:00
12:45 PM,60.8,46.4,59,29.88,10.0,WNW,6.9,-,N/A,,Overcast,300,2013-10-22 16:45:00
1:03 PM,60.8,46.4,59,29.88,10.0,WNW,3.5,-,N/A,,Overcast,300,2013-10-22 17:03:00
1:24 PM,60.8,46.4,59,29.87,10.0,WNW,5.8,-,N/A,,Overcast,300,2013-10-22 17:24:00
1:45 PM,-9999,-9999,N/A,-9999,-9999.0,North,-9999.0,-,N/A,,Unknown,0,2013-10-22 17:45:00
2:03 PM,62.6,46.4,55,29.86,-9999.0,North,-9999.0,-,N/A,,Mostly Cloudy,0,2013-10-22 18:03:00
2:24 PM,62.6,44.6,52,29.86,-9999.0,WNW,9.2,17.3,N/A,,Overcast,290,2013-10-22 18:24:00
2:45 PM,62.6,46.4,55,29.86,10.0,WNW,8.1,-,N/A,,Mostly Cloudy,300,2013-10-22 18:45:00
3:06 PM,62.6,44.6,52,29.86,10.0,WNW,8.1,-,N/A,,Mostly Cloudy,300,2013-10-22 19:06:00
3:24 PM,60.8,44.6,55,29.86,10.0,WNW,4.6,-,N/A,,Mostly Cloudy,300,2013-10-22 19:24:00
3:45 PM,60.8,44.6,55,29.85,10.0,WNW,4.6,-,N/A,,Mostly Cloudy,300,2013-10-22 19:45:00
4:06 PM,60.8,44.6,55,29.85,10.0,NW,4.6,-,N/A,,Scattered Clouds,320,2013-10-22 20:06:00
4:24 PM,60.8,44.6,55,29.85,10.0,West,5.8,-,N/A,,Clear,280,2013-10-22 20:24:00
4:45 PM,60.8,44.6,55,29.85,10.0,West,8.1,-,N/A,,Clear,270,2013-10-22 20:45:00
5:06 PM,60.8,44.6,55,29.86,10.0,WNW,5.8,-,N/A,,Clear,290,2013-10-22 21:06:00
5:24 PM,60.8,44.6,55,29.86,10.0,WNW,3.5,-,N/A,,Clear,300,2013-10-22 21:24:00
5:45 PM,57.2,46.4,67,29.85,10.0,Calm,Calm,-,N/A,,Clear,0,2013-10-22 21:45:00
6:06 PM,55.4,46.4,72,29.86,10.0,NW,4.6,-,N/A,,Clear,320,2013-10-22 22:06:00
6:24 PM,53.6,46.4,77,29.86,10.0,Calm,Calm,-,N/A,,Clear,0,2013-10-22 22:24:00
6:45 PM,51.8,46.4,82,29.86,10.0,Calm,Calm,-,N/A,,Clear,0,2013-10-22 22:45:00
7:06 PM,50.0,44.6,82,29.87,10.0,Calm,Calm,-,N/A,,Clear,0,2013-10-22 23:06:00
7:24 PM,48.2,44.6,87,29.87,10.0,Calm,Calm,-,N/A,,Clear,0,2013-10-22 23:24:00
7:45 PM,46.4,44.6,93,29.87,10.0,NNW,4.6,-,N/A,,Clear,330,2013-10-22 23:45:00
8:06 PM,46.4,44.6,93,29.88,10.0,Calm,Calm,-,N/A,,Scattered Clouds,0,2013-10-23 00:06:00
8:24 PM,46.4,44.6,93,29.88,10.0,Calm,Calm,-,N/A,,Mostly Cloudy,0,2013-10-23 00:24:00
8:45 PM,46.4,42.8,87,29.88,10.0,Calm,Calm,-,N/A,,Scattered Clouds,0,2013-10-23 00:45:00
9:06 PM,44.6,42.8,93,29.88,10.0,Calm,Calm,-,N/A,,Clear,0,2013-10-23 01:06:00
9:24 PM,44.6,42.8,93,29.88,10.0,Calm,Calm,-,N/A,,Clear,0,2013-10-23 01:24:00
9:45 PM,42.8,41.0,93,29.88,10.0,Calm,Calm,-,N/A,,Mostly Cloudy,0,2013-10-23 01:45:00
10:06 PM,44.6,42.8,93,29.89,10.0,Calm,Calm,-,N/A,,Overcast,0,2013-10-23 02:06:00
10:27 PM,46.4,44.6,93,29.89,10.0,Calm,Calm,-,N/A,,Overcast,0,2013-10-23 02:27:00
10:45 PM,46.4,44.6,93,29.89,10.0,Calm,Calm,-,N/A,,Overcast,0,2013-10-23 02:45:00
11:06 PM,46.4,44.6,93,29.88,10.0,Calm,Calm,-,N/A,,Overcast,0,2013-10-23 03:06:00
11:27 PM,46.4,44.6,93,29.87,10.0,Calm,Calm,-,N/A,,Overcast,0,2013-10-23 03:27:00
11:45 PM,46.4,42.8,87,29.86,10.0,Calm,Calm,-,N/A,,Overcast,0,2013-10-23 03:45:00